Hourly Data Report for October 28, 2014

All times are specified in Local Standard Time (LST). Add 1 hour to adjust for Daylight Saving Time where and when it is observed.

ARVIAT A
NUNAVUT

61°05'38.000" N
94°04'18.000" W
10.40 m
2300427
71174
YEK

Download Data

Hourly Data (October 2014)
Hourly Data Report for October 28, 2014
Temp Definition
°C
Dew Point Temp Definition
°C
Rel Hum Definition
%
Wind Dir Definition
10's deg

Wind Spd Definition
km/h
Visibility Definition
km
Stn Press Definition
kPa
Hmdx Definition


Wind Chill Definition


Weather Definition


TIME
00:00 Legend Double Dagger -9.6 -11.2 88 33 37 16.1 101.95   -20 LegendNANA
01:00 Legend Double Dagger -9.4 -10.9 89 34 34 16.1 101.96   -19 Snow
02:00 Legend Double Dagger -9.7 -11.1 90 32 26 16.1 102.01   -19 Snow
03:00 Legend Double Dagger -9.1 -10.4 90 34 26 16.1 102.03   -18 Snow
04:00 Legend Double Dagger -8.8 -10.1 90 33 26 16.1 102.03   -17 LegendNANA
05:00 Legend Double Dagger -9.3 -10.4 92 32 26 16.1 101.99   -18 LegendNANA
06:00 Legend Double Dagger -10.1 -11.3 91 31 22 16.1 102.01   -18 LegendNANA
07:00 Legend Double Dagger -11.1 -12.2 92 31 22 16.1 102.03   -20 LegendNANA
08:00 Legend Double Dagger -11.0 -12.3 90 33 21 16.1 102.03   -19 LegendNANA
09:00 Legend Double Dagger -10.8 -12.0 91 33 22 16.1 102.05   -19 LegendNANA
10:00 Legend Double Dagger -10.3 -11.7 90 33 24 16.1 102.06   -19 LegendNANA
11:00 Legend Double Dagger -10.2 -11.7 89 33 26 16.1 102.07   -19 LegendNANA
12:00 Legend Double Dagger -9.7 -11.5 87 33 22 16.1 102.07   -18 LegendNANA
13:00 Legend Double Dagger -9.6 -11.6 85 33 21 16.1 102.08   -18 LegendNANA
14:00 Legend Double Dagger -9.9 -12.2 83 32 18 16.1 102.09   -17 LegendNANA
15:00 Legend Double Dagger -10.1 -12.1 86 33 21 16.1 102.09   -18 LegendNANA
16:00 Legend Double Dagger -10.0 -11.7 87 34 21 16.1 102.10   -18 LegendNANA
17:00 Legend Double Dagger -10.6 -11.9 91 33 18 16.1 102.10   -18 LegendNANA
18:00 Legend Double Dagger -11.2 -12.2 92 36 17 16.1 102.12   -19 Snow
19:00 Legend Double Dagger -11.2 -11.8 95 34 17 16.1 102.12   -19 Snow
20:00 Legend Double Dagger -10.5 -11.0 96 35 17 2.8 102.09   -18 Fog
21:00 Legend Double Dagger -10.4 -10.9 96 34 11 1.6 102.07   -16 Snow
22:00 Legend Double Dagger -10.4 -11.1 95 33 17 1.2 102.08   -18 Snow
23:00 Legend Double Dagger -10.3 -11.0 95 33 13 1.6 102.06   -17 Snow

Notes on Data Quality.

Legend

  • E = Estimated
  • M = Missing
  • NA = Not Available
  • ‡ = Partner data that is not subject to review by the National Climate Archives
Date modified: